• In Belgium
  • List of Countries
  • For 7 days
  • Water Temperature
  • Satellite Maps
  • Weather Map
  • Weather Widgets
  • user-avatar
    Login

    Hourly Weather Grisons

    Today, 22 October, Monday

    Time Temperature Precipitation Wind Pressure Humidity
    00:00 +6°C° 0 mm 1 mps 670 mmHg 71%
    01:00 +6°C° 0 mm 1 mps 670 mmHg 66%
    02:00 +6°C° 0 mm 1 mps 670 mmHg 62%
    03:00 +6°C° 0 mm 1 mps 669 mmHg 58%
    04:00 +5°C° 0 mm 2 mps 669 mmHg 54%
    05:00 +5°C° 0 mm 2 mps 669 mmHg 53%
    06:00 +5°C° 0 mm 2 mps 670 mmHg 52%
    07:00 +5°C° 0 mm 2 mps 670 mmHg 51%
    08:00 +7°C° 0 mm 2 mps 670 mmHg 47%
    09:00 +10°C° 0 mm 2 mps 671 mmHg 43%
    10:00 +13°C° 0 mm 2 mps 671 mmHg 39%
    11:00 +13°C° 0 mm 2 mps 671 mmHg 39%
    12:00 +13°C° 0 mm 3 mps 671 mmHg 39%
    13:00 +14°C° 0 mm 3 mps 671 mmHg 40%
    14:00 +13°C° 0 mm 3 mps 671 mmHg 45%
    15:00 +12°C° 0 mm 3 mps 671 mmHg 50%
    16:00 +11°C° 0 mm 3 mps 671 mmHg 55%
    17:00 +9°C° 0 mm 3 mps 671 mmHg 66%
    18:00 +7°C° 0 mm 3 mps 671 mmHg 77%
    19:00 +5°C° 0 mm 2 mps 671 mmHg 88%
    20:00 +5°C° 0 mm 2 mps 672 mmHg 88%
    21:00 +5°C° 0 mm 2 mps 672 mmHg 89%
    22:00 +5°C° 0 mm 2 mps 673 mmHg 89%
    23:00 +5°C° 0 mm 2 mps 673 mmHg 89%

    Tomorrow, 23 October, Tuesday

    Time Temperature Precipitation Wind Pressure Humidity
    00:00 +5°C° 0 mm 2 mps 673 mmHg 89%
    01:00 +5°C° 0 mm 2 mps 672 mmHg 88%
    02:00 +5°C° 0 mm 2 mps 672 mmHg 86%
    03:00 +5°C° 0 mm 2 mps 672 mmHg 83%
    04:00 +5°C° 0 mm 2 mps 672 mmHg 81%
    05:00 +4°C° 0 mm 3 mps 672 mmHg 82%
    06:00 +3°C° 0 mm 3 mps 672 mmHg 83%
    07:00 +3°C° 0 mm 3 mps 672 mmHg 83%
    08:00 +7°C° 0 mm 3 mps 673 mmHg 73%
    09:00 +9°C° 0 mm 3 mps 673 mmHg 62%
    10:00 +11°C° 0 mm 3 mps 673 mmHg 52%
    11:00 +12°C° 0 mm 3 mps 673 mmHg 47%
    12:00 +13°C° 0 mm 3 mps 673 mmHg 43%
    13:00 +14°C° 0 mm 3 mps 673 mmHg 39%
    14:00 +13°C° 0 mm 3 mps 672 mmHg 44%
    15:00 +13°C° 0 mm 3 mps 672 mmHg 49%
    16:00 +12°C° 0 mm 3 mps 672 mmHg 54%
    17:00 +10°C° 0 mm 3 mps 671 mmHg 62%
    18:00 +8°C° 0 mm 3 mps 671 mmHg 71%
    19:00 +5°C° 0 mm 3 mps 671 mmHg 80%
    20:00 +5°C° 0 mm 3 mps 671 mmHg 76%
    21:00 +5°C° 0 mm 3 mps 671 mmHg 71%
    22:00 +5°C° 0 mm 3 mps 671 mmHg 67%
    23:00 +7°C° 0 mm 3 mps 671 mmHg 62%

    Day after tomorrow, 24 October, Wednesday

    Time Temperature Precipitation Wind Pressure Humidity
    00:00 +7°C° 0 mm 3 mps 671 mmHg 57%
    01:00 +8°C° 0 mm 3 mps 671 mmHg 51%
    02:00 +7°C° 0 mm 3 mps 671 mmHg 53%
    03:00 +7°C° 0 mm 3 mps 670 mmHg 55%
    04:00 +7°C° 0 mm 3 mps 670 mmHg 57%
    05:00 +7°C° 0 mm 3 mps 670 mmHg 60%
    06:00 +7°C° 0 mm 3 mps 670 mmHg 64%
    07:00 +7°C° 0 mm 3 mps 670 mmHg 67%
    08:00 +8°C° 0 mm 4 mps 670 mmHg 67%
    09:00 +10°C° 0 mm 4 mps 670 mmHg 67%
    10:00 +12°C° 0 mm 4 mps 671 mmHg 68%
    11:00 +12°C° 0 mm 4 mps 671 mmHg 68%
    12:00 +13°C° 0 mm 5 mps 670 mmHg 69%
    13:00 +14°C° 0 mm 5 mps 670 mmHg 69%
    14:00 +13°C° 0 mm 5 mps 670 mmHg 74%
    15:00 +12°C° 0 mm 5 mps 670 mmHg 78%
    16:00 +10°C° 0 mm 5 mps 669 mmHg 83%
    17:00 +10°C° 0 mm 5 mps 669 mmHg 86%
    18:00 +10°C° 0 mm 4 mps 669 mmHg 89%
    19:00 +8°C° 0 mm 4 mps 669 mmHg 92%
    20:00 +8°C° 0 mm 4 mps 670 mmHg 92%
    21:00 +8°C° 0 mm 4 mps 670 mmHg 92%
    22:00 +9°C° 0 mm 3 mps 670 mmHg 92%
    23:00 +8°C° 0 mm 3 mps 670 mmHg 92%

    25 October, Thursday

    Time Temperature Precipitation Wind Pressure Humidity
    00:00 +8°C° 0 mm 3 mps 670 mmHg 93%
    01:00 +8°C° 0 mm 3 mps 670 mmHg 93%
    02:00 +8°C° 0 mm 3 mps 669 mmHg 92%
    03:00 +7°C° 0 mm 3 mps 669 mmHg 92%
    04:00 +7°C° 0 mm 2 mps 669 mmHg 91%
    05:00 +6°C° 0 mm 2 mps 669 mmHg 89%
    06:00 +6°C° 0 mm 2 mps 669 mmHg 86%
    07:00 +6°C° 0 mm 2 mps 669 mmHg 83%
    08:00 +8°C° 0 mm 2 mps 669 mmHg 71%
    09:00 +12°C° 0 mm 1 mps 670 mmHg 58%
    10:00 +14°C° 0 mm 0 mps 670 mmHg 45%
    11:00 +16°C° 0 mm 1 mps 670 mmHg 43%
    12:00 +18°C° 0 mm 1 mps 670 mmHg 40%
    13:00 +19°C° 0 mm 1 mps 670 mmHg 38%
    14:00 +18°C° 0 mm 1 mps 669 mmHg 45%
    15:00 +16°C° 0 mm 1 mps 669 mmHg 52%
    16:00 +16°C° 0 mm 1 mps 668 mmHg 59%
    17:00 +13°C° 0 mm 1 mps 668 mmHg 67%
    18:00 +11°C° 0 mm 1 mps 667 mmHg 76%
    19:00 +9°C° 0 mm 1 mps 667 mmHg 84%
    20:00 +9°C° 0 mm 1 mps 667 mmHg 83%
    21:00 +9°C° 0 mm 1 mps 666 mmHg 81%
    22:00 +8°C° 0 mm 2 mps 666 mmHg 80%
    23:00 +8°C° 0 mm 2 mps 666 mmHg 79%

    26 October, Friday

    Time Temperature Precipitation Wind Pressure Humidity
    00:00 +8°C° 0 mm 2 mps 666 mmHg 78%
    01:00 +7°C° 0 mm 2 mps 666 mmHg 76%
    02:00 +7°C° 0 mm 2 mps 665 mmHg 76%
    03:00 +7°C° 0 mm 2 mps 665 mmHg 77%
    04:00 +7°C° 0 mm 2 mps 664 mmHg 77%
    05:00 +7°C° 0 mm 2 mps 664 mmHg 78%
    06:00 +7°C° 0 mm 2 mps 664 mmHg 80%
    07:00 +7°C° 0 mm 2 mps 664 mmHg 81%
    08:00 +9°C° 0 mm 2 mps 664 mmHg 78%
    09:00 +10°C° 0 mm 2 mps 664 mmHg 74%
    10:00 +13°C° 0 mm 2 mps 664 mmHg 71%
    11:00 +14°C° 0 mm 2 mps 664 mmHg 70%
    12:00 +14°C° 0 mm 2 mps 664 mmHg 69%
    13:00 +15°C° 0 mm 2 mps 663 mmHg 68%
    14:00 +14°C° 0 mm 2 mps 663 mmHg 73%
    15:00 +14°C° 0 mm 2 mps 662 mmHg 77%
    16:00 +13°C° 0 mm 2 mps 662 mmHg 81%
    17:00 +12°C° 0.1 mm 2 mps 662 mmHg 84%
    18:00 +12°C° 0.1 mm 2 mps 662 mmHg 87%
    19:00 +10°C° 0.1 mm 3 mps 662 mmHg 89%
    20:00 +10°C° 0.2 mm 3 mps 662 mmHg 90%
    21:00 +10°C° 0.2 mm 3 mps 661 mmHg 90%
    22:00 +9°C° 0.2 mm 3 mps 661 mmHg 91%
    23:00 +9°C° 0.5 mm 3 mps 661 mmHg 91%

    27 October, Saturday

    Time Temperature Precipitation Wind Pressure Humidity
    00:00 +9°C° 0.5 mm 3 mps 660 mmHg 92%
    01:00 +9°C° 0.5 mm 3 mps 660 mmHg 93%
    02:00 +9°C° 1.1 mm 3 mps 659 mmHg 93%
    03:00 +9°C° 1.1 mm 3 mps 659 mmHg 94%
    04:00 +9°C° 1.1 mm 3 mps 658 mmHg 95%
    05:00 +9°C° 1.6 mm 3 mps 658 mmHg 95%
    06:00 +9°C° 1.6 mm 3 mps 657 mmHg 95%
    07:00 +9°C° 1.6 mm 3 mps 657 mmHg 96%
    08:00 +9°C° 2.7 mm 3 mps 657 mmHg 96%
    09:00 +8°C° 2.7 mm 3 mps 657 mmHg 95%
    10:00 +8°C° 2.7 mm 3 mps 657 mmHg 95%
    11:00 +8°C° 3.6 mm 3 mps 656 mmHg 96%
    12:00 +7°C° 3.6 mm 3 mps 656 mmHg 97%
    13:00 +7°C° 3.6 mm 3 mps 656 mmHg 97%
    14:00 +5°C° 3.9 mm 3 mps 655 mmHg 97%
    15:00 +4°C° 3.9 mm 3 mps 655 mmHg 97%
    16:00 +3°C° 3.9 mm 3 mps 655 mmHg 97%
    17:00 +2°C° 2.4 mm 3 mps 654 mmHg 97%
    18:00 +1°C° 2.4 mm 3 mps 654 mmHg 97%
    19:00 +1°C° 2.4 mm 3 mps 654 mmHg 97%
    20:00 0°C° 1.6 mm 3 mps 654 mmHg 97%
    21:00 0°C° 1.6 mm 3 mps 654 mmHg 97%
    22:00 0°C° 1.6 mm 3 mps 654 mmHg 96%
    23:00 0°C° 0.7 mm 3 mps 654 mmHg 96%
    Show more